Home > Weather > Thane > Past weeks

Flag for India Past Weather in Thane, Maharashtra, India — Yesterday and Last 2 Weeks

Now
86 °F

Broken clouds.


Feels Like: 97 °F
Forecast: 77 / 82 °F
Wind: 10 mph from West

Location: Mumbai / Santacruz

Current Time: Jul 23, 2016 at 6:45:56 PM

Latest Report: Jul 23, 2016 at 6:00 PM


Visibility: 2 mi

Pressure: 29.62 "Hg

Humidity: 75%

Dew Point: 77 °F

Location of ThaneLocation

Past Weather in Thane — Graph

°F

Thane Temperature Yesterday

Maximum temperature yesterday: 84 °F (at 11:30 AM)
Minimum temperature yesterday: 79 °F (at 12:00 AM)
Average temperature yesterday: 81 °F

High & Low Weather Summary for the Past Weeks

 TemperatureHumidityPressure
High86 °F (Jul 9, 10:30 AM)100% (Jul 13, 4:30 AM)29.83 "Hg (Jul 13, 4:30 AM)
Low75 °F (Jul 21, 3:30 PM)70% (Jul 16, 12:30 PM)29.56 "Hg (Jul 9, 3:30 PM)
Average82 °F87%29.67 "Hg
* Reported Jul 8 5:30 PM — Jul 23 5:30 PM, Thane, Weather by CustomWeather, © 2016

Note: Actual official high and low records may vary slightly from our data, if they occured in-between our weather recording intervals... More about our weather records

Advertising

Thane Weather History for the Previous 24 Hours

Scroll right to see more
 ConditionsComfort  
Time TempWeatherWind HumidityBarometerVisibility
5:30 PM
Sat, Jul 23
84 °FBroken clouds.12 mph84%29.59 "Hg2 mi
5:00 PM86 °FBroken clouds.14 mph79%29.59 "Hg2 mi
4:30 PM86 °FBroken clouds.15 mph79%29.59 "Hg2 mi
4:00 PM86 °FBroken clouds.16 mph79%29.59 "Hg2 mi
3:30 PM86 °FScattered clouds.17 mph79%29.62 "Hg2 mi
3:00 PM84 °FScattered clouds.17 mph79%29.62 "Hg2 mi
2:30 PM86 °FScattered clouds.16 mph79%29.62 "Hg2 mi
2:00 PM84 °FScattered clouds.16 mph84%29.62 "Hg2 mi
1:30 PM86 °FScattered clouds.14 mph75%29.62 "Hg2 mi
1:00 PM86 °FBroken clouds.13 mph79%29.65 "Hg2 mi
12:30 PM84 °FScattered showers. Broken clouds.13 mph89%29.65 "Hg2 mi
12:00 PM84 °FDrizzle. Broken clouds.12 mph84%29.65 "Hg2 mi
11:30 AM84 °FBroken clouds.9 mph79%29.65 "Hg2 mi
11:00 AM82 °FBroken clouds.8 mph84%29.68 "Hg1 mi
10:30 AM82 °FRain. More clouds than sun.6 mph89%29.68 "Hg1 mi
10:00 AM81 °FBroken clouds.7 mph94%29.68 "Hg1 mi
9:30 AM79 °FLight rain. More clouds than sun.5 mph94%29.68 "Hg1 mi
9:00 AM79 °FScattered showers. More clouds than sun.9 mph94%29.68 "Hg1 mi
8:30 AM79 °FLight rain. More clouds than sun.8 mph94%29.68 "Hg1 mi
8:00 AM79 °FDrizzle. More clouds than sun.9 mph89%29.65 "Hg1 mi
7:30 AM79 °FDrizzle. More clouds than sun.3 mph94%29.65 "Hg1 mi
7:00 AM79 °FDrizzle. More clouds than sun.5 mph89%29.65 "Hg1 mi
6:30 AM77 °FLight rain. Mostly cloudy.5 mph94%29.65 "Hg1 mi
6:00 AM77 °FRain. Mostly cloudy.3 mph94%29.65 "Hg1 mi
5:30 AM79 °FPartly cloudy.5 mph94%29.62 "Hg1 mi
5:00 AM81 °FPartly cloudy.5 mph89%29.62 "Hg1 mi
4:30 AM81 °FPartly cloudy.3 mph89%29.62 "Hg1 mi
4:00 AM79 °FPartly cloudy.6 mph94%29.62 "Hg1 mi
3:30 AM81 °FPartly cloudy.6 mph89%29.62 "Hg1 mi
3:00 AM81 °FPartly cloudy.6 mph89%29.62 "Hg1 mi
2:30 AM81 °FMostly cloudy.7 mph89%29.65 "Hg1 mi
2:00 AM81 °FMostly cloudy.3 mph89%29.65 "Hg1 mi
1:30 AM81 °FMostly cloudy.3 mph89%29.65 "Hg1 mi
1:00 AM81 °FMostly cloudy.No wind84%29.68 "Hg1 mi
11:30 PM
Fri, Jul 22
79 °FDrizzle. Mostly cloudy.6 mph94%29.68 "Hg1 mi
10:30 PM81 °FLight rain. Mostly cloudy.14 mph84%29.68 "Hg1 mi
9:30 PM82 °FPartly cloudy.10 mph84%29.68 "Hg1 mi
9:00 PM82 °FPartly cloudy.10 mph84%29.68 "Hg1 mi
8:30 PM82 °FPartly cloudy.13 mph84%29.65 "Hg1 mi
8:00 PM82 °FPartly cloudy.12 mph84%29.65 "Hg1 mi
7:30 PM82 °FScattered showers. Broken clouds.14 mph84%29.65 "Hg1 mi
7:00 PM82 °FDrizzle. Broken clouds.8 mph84%29.62 "Hg1 mi
6:30 PM82 °FBroken clouds.10 mph89%29.62 "Hg2 mi
6:00 PM81 °FBroken clouds.10 mph89%29.62 "Hg2 mi
Weather by CustomWeather, © 2016

See weather overviewHow to use our weather pages